STARLINK-35988, 66615

Orbit data source: Space-Track

STARLINK-35988, 66615 is a payload satellite owned by SpaceX/Seattle (US) in LEO that was launched on Sat, 22 Nov 2025 UTC via an FALCON 9 launch vehicle from the Air Force Eastern Test Range (AFETR). Payload-class satellites include a variety of spacecraft equipped with specific instruments for various scientific and technological missions. These include communications satellites like Starlink; space stations such as the ISS; scientific satellites like the Hubble; Earth observation satellites from companies like Planet Labs, Umbra, and HawkEye 360; GPS; miniature CubeSats for education and research; and military/defense satellites.

Loading next visibility...
Identifier
66615, 2025-270AD
Orbit
LEO
Country
Flag of USUS
Related business
Manufacturer
SpaceX/Seattle
Mission
Operational Commercial Communications
Bus & Motor
STARLINK V2MO, Unknown motor
Mass
575 kg wet, ~530 kg dry
Launch date (UTC)
2025-11-22 (7 months ago)
Launch vehicle
FALCON 9
Launch site
Air Force Eastern Test Range (AFETR)
Object type
Payload
Rocket body
Debris
Shape & HBR
Box + 2 Pan, 17.7 m
Radar Cross Section
36.964 m², Large (>1 m²)

Expand to show TLE details & history
Last TLE update: 17 hours ago

TLE from 17 hours ago
0 STARLINK-35988
1 66615U 25270AD  26171.12722564  .00010472  00000-0  38939-3 0  9995
2 66615  43.0011 197.5573 0001227 266.9949  93.0762 15.27592964 33215
Epoch: 2026-06-20T03:03Z
TLE epoch observation values (Epoch: 2026-06-20T03:03:12.295Z)
Latitude
-0.00003°
Longitude
-116.59027°
Altitude
482.831 km
Speed
7.626 km/s
True Right ascension
13h 10m 13s
True Declination
0° 00' 00"
Sunlit
Object was in daylight at epoch
Visualization orbit readout
Latitude
Unknown
Longitude
Unknown
Altitude
Unknown
Speed
Unknown
Apparent Right ascension
Unknown
Apparent Declination
Unknown
Sunlit
N/A
Visualization observer readout
Local Sidereal Time
07:15:38
Azimuth
Unknown
Elevation
Unknown
Doppler factor
Unknown
Orbital elements
Apogee altitude
485.797 km
Perigee altitude
484.113 km
Semi-major axis
6,863.092 km
Eccentricity
0.00012
Inclination
43.0011°
RAAN
197.5573°
Arg. of periapsis
266.9949°
True anomaly
93.09024°
Mean anomaly
93.0762°
Eccentric anomaly
93.08322°
Mean motion
3.81736 °/min
Orbital period
94.31 mins
BSTAR
0.00038939
Loading maneuver chart data...
Computing Atmospheric mass density...
Loading historical data...
Loading historical data...
Loading historical data...
Loading historical data...
Loading historical data...
Loading historical data...
Loading historical data...

Documentation

Showing up to 5 results
|